Tracking 18785 objects as of 23-July-2017
HD Live streaming from Space Station
objects crossing your sky now
MAYAK may become the brightest orbital object in the night sky!
Where is MAYAK now?
How to spot MAYAK

IRIDIUM 124

Track IRIDIUM 124 now!
10-day predictions
IRIDIUM 124 is classified as:


NORAD ID: 42810
Int'l Code: 2017-039H
Perigee: 613.0 km
Apogee: 634.6 km
Inclination: 86.7 °
Period: 97.0 minutes
Semi major axis: 6994 km
RCS: Unknown
Launch date: June 25, 2017
Source: United States (US)
Launch site: AIR FORCE WESTERN TEST RANGE (AFWTR)
Your satellite tracking list
Your tracking list is empty





NASA's NSSDC Master Catalog

Two Line Element Set (TLE):
1 42810U 17039H   17203.93253332 +.00000180 +00000-0 +18194-4 0  9994
2 42810 086.6695 272.2384 0015405 139.6899 220.5470 14.84013743004015
Source of the keplerian elements: AFSPC